Location: Cherry Springs State Park
(41.6616°N, 77.8240°W)
Time: 13:17:34
(UTC-04:00)

Daily predictions for brighter satellites

Satellite Brightness Start Highest point End
(mag) Time Altitude Azimuth Time Altitude Azimuth Time Altitude Azimuth
Cosmos 1140 Rocket 3.5 21:16:27 10° S 21:21:35 70° ESE 21:26:43 10° NNE
Cosmos 2082 3.8 21:16:03 10° SSW 21:21:40 89° WNW 21:27:20 10° NNE
USA 32 4.2 21:17:07 10° SSE 21:22:13 55° E 21:27:21 10° NNE
SAR-Lupe-1 4.4 21:19:39 10° SSE 21:23:07 50° ENE 21:26:37 10° N
Cosmos 1242 Rocket 4.1 21:22:04 10° NNE 21:25:03 22° ENE 21:28:00 10° SE
Cosmos 2297 Rocket 2.3 21:22:39 10° SSW 21:28:19 84° WNW 21:34:01 10° NNE
Meteor 2-15 4.4 21:22:24 10° S 21:28:26 82° E 21:34:32 10° N
Resurs 01 Rocket 3.7 21:25:46 10° SSW 21:29:31 27° W 21:33:17 10° NW
Cosmos 1939 Rocket 3.3 21:29:29 10° S 21:33:26 65° W 21:37:28 10° NNW
Cosmos 1867 4.1 21:31:03 10° S 21:36:02 39° ESE 21:41:04 10° NE
Cosmos 2100 Rocket 4.4 21:32:49 10° N 21:38:56 50° ENE 21:45:04 10° SSE
Cosmos 1459 Rocket 4.4 21:32:55 10° N 21:38:58 46° ENE 21:44:55 10° SSE
Cosmos 1340 Rocket 2.9 21:40:25 10° S 21:44:25 87° W 21:48:30 10° N
ATLAS 5 CENTAUR R/B 1.7 21:44:13 10° SSW 21:48:48 69° ESE 21:53:48 10° NE
Cosmos 2173 Rocket 4.2 21:46:08 10° N 21:52:12 57° E 21:58:06 11° SSE
Cosmos 1850 Rocket 3.9 21:48:05 10° SSW 21:53:14 77° ESE 21:58:27 10° NNE
SPOT 5 3.4 21:49:06 12° SE 21:53:14 44° ENE 21:58:03 10° N
Lacrosse 5 3.1 21:49:24 10° NNW 21:54:00 33° NNE 21:58:35 10° E
Cosmos 2084 3.2 21:51:12 10° SSW 21:55:10 58° ESE 21:58:57 10° NE
YAOGAN 6 3.4 21:52:02 10° S 21:55:33 50° W 21:59:09 10° NNW
Cosmos 614 Rocket 4.3 21:50:36 10° SSW 21:55:48 71° WNW 22:01:01 10° NNE
Cosmos 2237 Rocket 3.5 21:51:37 10° NW 21:56:42 36° WSW 22:01:46 10° S
Cosmos 1726 3.6 21:53:50 10° NNE 21:56:48 23° ENE 21:58:49 15° ESE
Helios 1B rocket 3.7 21:52:54 10° N 21:56:53 45° WNW 22:00:49 10° SW
Helios 1A 4.4 21:54:21 10° SSW 21:58:08 35° W 22:01:57 10° NNW
CZ-4B DEB 4.2 21:55:51 10° SSW 21:58:33 32° W 22:01:17 10° NNW
USA 234 3.3 21:52:34 10° NE 21:59:00 58° SE 22:05:25 10° SSW
CZ-3B R/B 3.9 22:00:02 10° SSW 22:02:57 62° SE 22:12:31 10° NE
Cosmos 1603 4.5 21:57:53 10° N 22:03:12 39° ENE 22:07:25 15° ESE
H-2A R/B 2.7 22:00:47 15° SE 22:04:53 42° ENE 22:09:58 10° N
Atlas Centaur 2 3.1 22:04:32 10° SW 22:06:05 12° S 22:06:40 12° S
ERS-1 Rocket 3.1 22:01:56 10° S 22:06:57 74° WSW 22:12:00 10° NNW
Cosmos 1802 Rocket 4.0 22:04:45 10° N 22:10:53 69° E 22:16:08 14° SSE
Abrixas rocket 4.1 22:08:30 10° NW 22:11:21 27° N 22:14:12 10° ENE
Cosmos 2227 Rocket 4.2 22:06:59 10° WSW 22:11:59 31° NW 22:17:01 10° N
Cosmos 1818 3.6 22:06:38 10° NW 22:12:05 79° WSW 22:16:16 17° SSE
Lacrosse 4 Rocket 4.5 22:11:57 10° W 22:15:08 20° NW 22:18:22 10° N
Cosmos 1908 3.4 22:13:00 10° NNW 22:16:54 72° W 22:20:03 15° S
Cosmos 1674 2.8 22:13:19 10° SSW 22:17:05 73° W 22:20:51 10° N
Cosmos 1741 Rocket 4.4 22:12:15 10° SSW 22:17:33 68° WNW 22:22:51 10° NNE
SL-16 R/B 2.7 22:14:47 10° NNW 22:20:20 56° WSW 22:25:10 13° S
Cosmos 1943 4.5 22:15:31 10° N 22:20:22 28° NE 22:24:10 15° ESE
Landsat 7 4.4 22:20:56 20° SE 22:23:47 42° ENE 22:28:16 10° N
ARGOS 3.2 22:20:18 15° SSE 22:24:49 85° WSW 22:30:17 10° NNW
Cosmos 1408 Rocket 3.4 22:23:36 14° S 22:27:19 82° E 22:31:40 10° N
KORONAS-FOTON 3.8 22:24:13 13° S 22:27:34 84° W 22:31:23 10° N
Cosmos 1356 Rocket 4.1 22:28:27 10° SSW 22:32:37 57° WNW 22:36:52 10° N
Cosmos 1076 Rocket 4.3 22:28:43 10° SSW 22:32:59 52° W 22:37:16 10° N
Tiangong 1 0.9 22:32:28 10° W 22:35:15 70° N 22:36:46 23° ENE
DMSP B5D2-2 4.3 22:31:57 10° NNE 22:37:03 51° E 22:40:08 23° SSE
Terra 2.5 22:36:22 24° SE 22:38:44 41° ENE 22:43:12 10° N
Cosmos 2058 4.1 22:38:51 24° ESE 22:39:46 27° E 22:43:19 10° NNE
Cosmos 2016 Rocket 4.0 22:36:35 10° N 22:42:52 81° W 22:47:32 19° S
Cosmos 2221 4.4 22:40:37 10° NNW 22:44:20 27° W 22:48:02 10° SSW
Cosmos 1500 Rocket 4.0 22:45:14 31° SE 22:46:56 46° E 22:51:13 10° NNE
Cosmos 332 Rocket 3.8 22:47:17 10° NNW 22:52:13 85° ENE 22:54:33 32° SSE
ERBS 3.5 22:50:17 10° NNW 22:53:27 35° NE 22:54:40 26° E
Cosmos 2227 4.4 22:48:54 10° SSW 22:54:37 75° WNW 23:00:22 10° NNE
Cosmos 2151 3.4 22:54:01 35° SE 22:55:15 46° E 22:59:23 10° NNE
Cosmos 1814 Rocket 4.0 22:50:14 10° NNW 22:55:37 78° ENE 22:58:11 32° SSE
CARTOSAT-1 3.6 22:55:32 36° SE 22:57:09 63° ENE 23:01:26 10° N
RESURS DK-1 2.3 22:53:42 10° NNW 22:57:53 81° WSW 22:59:21 39° SSE
SPOT 1/Viking Rocket 3.9 22:56:35 23° S 22:59:45 59° W 23:04:51 10° NNW
Cosmos 1486 Rocket 4.0 22:57:03 27° S 22:59:53 62° ESE 23:05:08 10° NNE
Meteor 2-2 Rocket 4.5 22:57:54 10° NNW 23:03:39 71° W 23:07:11 25° S
EO 1 Delta rocket 4.4 23:04:01 23° SSW 23:06:50 52° W 23:11:21 10° NNW
Cosmos 2233 Rocket 4.0 23:02:07 10° N 23:08:21 71° E 23:11:20 32° SSE
Cosmos 841 Rocket 3.6 23:03:57 10° NNW 23:09:11 63° ENE 23:11:13 36° SE
Cosmos 1328 Rocket 3.9 23:06:45 10° NNW 23:11:01 58° W 23:12:49 32° SSW
Cosmos 2228 Rocket 3.4 23:07:57 10° NNW 23:12:30 63° W 23:14:28 32° SSW
Cosmos 1763 Rocket 3.3 23:07:32 10° NNW 23:12:41 86° ENE 23:14:35 39° SSE
SL-14 R/B 3.9 23:10:43 25° SSW 23:12:49 53° W 23:16:42 10° N
Cosmos 1515 Rocket 3.6 23:10:15 10° NNW 23:14:35 75° W 23:16:02 41° S
H-2A R/B 2.0 23:17:20 47° SSE 23:18:33 84° ENE 23:22:49 10° NNW
Cosmos 1743 Rocket 4.1 23:16:55 25° SSW 23:19:14 55° W 23:23:29 10° N
Cosmos 1151 Rocket 3.0 23:19:15 10° N 23:23:38 79° W 23:24:51 47° S
Cosmos 1300 3.9 23:20:12 10° NNW 23:23:42 35° W 23:25:01 27° SW
Cosmos 2263 Rocket 2.1 23:21:44 34° S 23:24:11 69° ESE 23:29:45 10° NNE
Cosmos 1626 1.9 23:25:43 71° SE 23:26:00 77° E 23:29:43 10° N
SL-19 R/B 4.1 23:22:45 10° NNE 23:28:06 90° ESE 23:30:50 31° SSW
Cosmos 1447 Rocket 4.5 23:24:35 29° S 23:28:07 87° W 23:34:31 10° N
Cosmos 1726 4.2 23:29:13 10° NW 23:31:59 20° W 23:33:27 16° WSW
IGS 5A 4.0 23:33:58 40° SW 23:34:58 50° W 23:39:02 10° NNW
Lacrosse 5 2.2 23:32:15 10° NW 23:37:09 51° SW 23:38:08 44° SSW
Meteor 2-12 Rocket 4.4 23:32:02 10° N 23:38:08 81° W 23:40:35 38° S
USA 234 4.2 23:35:41 10° NE 23:41:54 48° NNW 23:48:06 10° WSW
Cosmos 371 Rocket 4.2 23:38:33 10° NW 23:42:59 38° WSW 23:44:22 31° SW
H-2A R/B 3.8 23:41:24 16° SW 23:44:26 25° W 23:48:51 10° NW
Cosmos 1503 Rocket 3.8 23:43:59 47° S 23:45:30 81° ESE 23:50:42 10° NNE
Cosmos 2285 Rocket 4.0 23:42:00 10° NNW 23:48:23 80° ENE 23:50:38 43° SSE
Abrixas rocket 3.0 23:45:08 10° WNW 23:47:34 47° WNW 23:47:34 47° WNW
Cosmos 1869 3.9 23:46:35 10° N 23:50:18 44° ENE 23:50:18 44° ENE
CZ-4C R/B 3.3 23:53:11 73° SSE 23:53:35 89° WNW 23:57:58 10° NNW
